| time (UTC) | temp F | wind direction | speed knots | gust knots | rain 1hr in | rain 24hr in | rain mn in | humidity % | barometer mb |
| 20260508203029 | 71 | 286 | 13.0 | 24.3 | 0.00 | 0.00 | 0.00 | 25 | 1005.9 |
| 20260508201524 | 71 | 287 | 8.7 | 20.9 | 0.00 | 0.00 | 0.00 | 26 | 1006.1 |
| 20260508200020 | 71 | 280 | 9.6 | 18.2 | 0.00 | 0.00 | 0.00 | 23 | 1006.5 |
| 20260508194519 | 71 | 252 | 9.6 | 16.5 | 0.00 | 0.00 | 0.00 | 26 | 1006.5 |
| 20260508193016 | 70 | 266 | 6.1 | 21.7 | 0.00 | 0.00 | 0.00 | 26 | 1006.8 |
| 20260508191523 | 69 | 267 | 8.7 | 18.2 | 0.00 | 0.00 | 0.00 | 25 | 1007.3 |
| 20260508190013 | 69 | 321 | 5.2 | 10.4 | 0.00 | 0.00 | 0.00 | 24 | 1007.3 |
| 20260508184514 | 70 | 290 | 11.3 | 16.5 | 0.00 | 0.00 | 0.00 | 28 | 1007.6 |
| 20260508183009 | 69 | 321 | 4.3 | 19.1 | 0.00 | 0.00 | 0.00 | 25 | 1007.9 |
| 20260508181520 | 68 | 257 | 9.6 | 16.5 | 0.00 | 0.00 | 0.00 | 24 | 1008.1 |
| 20260508180006 | 67 | 271 | 5.2 | 14.8 | 0.00 | 0.00 | 0.00 | 26 | 1008.3 |
| 20260508174507 | 68 | 268 | 7.8 | 15.6 | 0.00 | 0.00 | 0.00 | 25 | 1008.6 |
| 20260508173200 | 67 | 276 | 7.0 | 13.9 | 0.00 | 0.00 | 0.00 | 31 | 1008.9 |
| 20260508171558 | 67 | 303 | 9.6 | 19.1 | 0.00 | 0.00 | 0.00 | 29 | 1009.3 |
| 20260508170056 | 67 | 242 | 8.7 | 15.6 | 0.00 | 0.00 | 0.00 | 27 | 1009.4 |
| 20260508164555 | 66 | 265 | 12.2 | 16.5 | 0.00 | 0.00 | 0.00 | 26 | 1009.6 |
| 20260508163047 | 66 | 287 | 7.0 | 15.6 | 0.00 | 0.00 | 0.00 | 30 | 1009.8 |
| 20260508161545 | 65 | 238 | 9.6 | 15.6 | 0.00 | 0.00 | 0.00 | 27 | 1010.1 |
| 20260508160042 | 64 | 283 | 12.2 | 17.4 | 0.00 | 0.00 | 0.00 | 27 | 1010.3 |
| 20260508154549 | 63 | 263 | 6.1 | 13.9 | 0.00 | 0.00 | 0.00 | 32 | 1010.5 |
| 20260508153035 | 63 | 248 | 10.4 | 14.8 | 0.00 | 0.00 | 0.00 | 31 | 1010.7 |
| 20260508151531 | 62 | 232 | 9.6 | 15.6 | 0.00 | 0.00 | 0.00 | 31 | 1010.8 |
| 20260508150028 | 61 | 225 | 11.3 | 14.8 | 0.00 | 0.00 | 0.00 | 32 | 1011.0 |
| 20260508144525 | 60 | 197 | 8.7 | 15.6 | 0.00 | 0.00 | 0.00 | 34 | 1011.1 |
| 20260508143022 | 58 | 220 | 11.3 | 17.4 | 0.00 | 0.00 | 0.00 | 33 | 1011.4 |
| 20260508141525 | 57 | 214 | 12.2 | 17.4 | 0.00 | 0.00 | 0.00 | 34 | 1011.3 |
| 20260508140014 | 55 | 192 | 9.6 | 13.9 | 0.00 | 0.00 | 0.00 | 37 | 1011.3 |
| 20260508134512 | 54 | 234 | 11.3 | 13.9 | 0.00 | 0.00 | 0.00 | 38 | 1011.4 |
| 20260508133006 | 53 | 229 | 10.4 | 13.0 | 0.00 | 0.00 | 0.00 | 39 | 1011.5 |
| 20260508131503 | 51 | 222 | 7.8 | 10.4 | 0.00 | 0.00 | 0.00 | 42 | 1011.6 |
| 20260508130058 | 49 | 194 | 7.0 | 10.4 | 0.00 | 0.00 | 0.00 | 46 | 1011.7 |
| 20260508124553 | 47 | 207 | 5.2 | 8.7 | 0.00 | 0.00 | 0.00 | 47 | 1011.7 |
| 20260508123049 | 45 | 202 | 4.3 | 7.0 | 0.00 | 0.00 | 0.00 | 48 | 1011.6 |
| 20260508121544 | 43 | 209 | 2.6 | 4.3 | 0.00 | 0.00 | 0.00 | 51 | 1011.6 |
| 20260508120047 | 41 | 161 | 0.0 | 0.0 | 0.00 | 0.00 | 0.00 | 57 | 1011.5 |
| 20260508114534 | 39 | 161 | 0.0 | 1.7 | 0.00 | 0.00 | 0.00 | 58 | 1011.7 |
| 20260508113031 | 38 | 161 | 1.7 | 3.5 | 0.00 | 0.00 | 0.00 | 54 | 1011.6 |
| 20260508111534 | 38 | 161 | 2.6 | 4.3 | 0.00 | 0.00 | 0.00 | 53 | 1011.6 |
| 20260508110025 | 38 | 171 | 1.7 | 2.6 | 0.00 | 0.00 | 0.00 | 53 | 1011.5 |
| 20260508104523 | 37 | 171 | 2.6 | 3.5 | 0.00 | 0.00 | 0.00 | 53 | 1011.6 |
| 20260508103029 | 37 | 172 | 1.7 | 3.5 | 0.00 | 0.00 | 0.00 | 53 | 1011.7 |
| 20260508101533 | 38 | 171 | 2.6 | 3.5 | 0.00 | 0.00 | 0.00 | 52 | 1011.7 |
| 20260508100018 | 38 | 172 | 1.7 | 2.6 | 0.00 | 0.00 | 0.00 | 53 | 1011.8 |
| 20260508094514 | 38 | 172 | 0.0 | 0.9 | 0.00 | 0.00 | 0.00 | 53 | 1011.9 |
| 20260508093012 | 39 | 172 | 0.0 | 1.7 | 0.00 | 0.00 | 0.00 | 51 | 1011.8 |
| 20260508091508 | 40 | 172 | 1.7 | 3.5 | 0.00 | 0.00 | 0.00 | 50 | 1011.8 |
| 20260508090008 | 41 | 173 | 1.7 | 2.6 | 0.00 | 0.00 | 0.00 | 48 | 1012.0 |
| 20260508084506 | 42 | 172 | 1.7 | 3.5 | 0.00 | 0.00 | 0.00 | 46 | 1012.0 |
| 20260508083005 | 43 | 167 | 4.3 | 5.2 | 0.00 | 0.00 | 0.00 | 45 | 1012.2 |
| 20260508081505 | 44 | 156 | 2.6 | 7.0 | 0.00 | 0.00 | 0.00 | 44 | 1012.1 |
| 20260508080007 | 44 | 142 | 3.5 | 7.8 | 0.00 | 0.00 | 0.00 | 44 | 1012.1 |
| 20260508074502 | 45 | 157 | 6.1 | 9.6 | 0.00 | 0.00 | 0.00 | 42 | 1012.3 |
| 20260508073101 | 45 | 153 | 6.1 | 9.6 | 0.00 | 0.00 | 0.00 | 42 | 1012.5 |
| 20260508071559 | 42 | 149 | 3.5 | 7.0 | 0.00 | 0.00 | 0.00 | 46 | 1012.5 |
| 20260508070057 | 42 | 138 | 3.5 | 6.1 | 0.00 | 0.00 | 0.00 | 46 | 1012.6 |
| 20260508064601 | 40 | 129 | 3.5 | 4.3 | 0.00 | 0.00 | 0.00 | 48 | 1012.7 |
| 20260508063054 | 40 | 111 | 4.3 | 5.2 | 0.00 | 0.00 | 0.00 | 48 | 1012.7 |
| 20260508061556 | 41 | 105 | 3.5 | 7.0 | 0.00 | 0.00 | 0.00 | 46 | 1012.8 |
| 20260508060051 | 43 | 105 | 4.3 | 6.1 | 0.00 | 0.00 | 0.00 | 44 | 1012.9 |
| 20260508054548 | 44 | 87 | 6.1 | 7.8 | 0.00 | 0.00 | 0.00 | 41 | 1012.9 |
| 20260508053042 | 45 | 86 | 6.1 | 7.8 | 0.00 | 0.00 | 0.00 | 40 | 1013.0 |
| 20260508051541 | 46 | 78 | 4.3 | 7.8 | 0.00 | 0.00 | 0.00 | 37 | 1012.9 |
| 20260508050037 | 46 | 90 | 5.2 | 7.8 | 0.00 | 0.00 | 0.00 | 37 | 1013.1 |
| 20260508044536 | 47 | 89 | 4.3 | 7.0 | 0.00 | 0.00 | 0.00 | 37 | 1013.2 |
| 20260508043034 | 47 | 74 | 3.5 | 8.7 | 0.00 | 0.00 | 0.00 | 36 | 1013.1 |
| 20260508041533 | 47 | 70 | 4.3 | 7.8 | 0.00 | 0.00 | 0.00 | 37 | 1013.2 |
| 20260508040038 | 47 | 87 | 2.6 | 5.2 | 0.00 | 0.00 | 0.00 | 38 | 1013.1 |
| 20260508034532 | 46 | 91 | 3.5 | 5.2 | 0.00 | 0.00 | 0.00 | 38 | 1013.0 |
| 20260508033033 | 42 | 91 | 3.5 | 6.1 | 0.00 | 0.00 | 0.00 | 43 | 1013.1 |
| 20260508031532 | 41 | 42 | 0.9 | 2.6 | 0.00 | 0.00 | 0.00 | 49 | 1013.1 |
| 20260508030032 | 40 | 38 | 0.9 | 2.6 | 0.00 | 0.00 | 0.00 | 53 | 1012.9 |
| 20260508024542 | 41 | 38 | 0.9 | 3.5 | 0.00 | 0.00 | 0.00 | 54 | 1012.9 |
| 20260508023030 | 43 | 39 | 1.7 | 3.5 | 0.00 | 0.00 | 0.00 | 49 | 1012.8 |
| 20260508021528 | 42 | 24 | 2.6 | 3.5 | 0.00 | 0.00 | 0.00 | 52 | 1012.7 |
| 20260508020027 | 46 | 24 | 0.0 | 1.7 | 0.00 | 0.00 | 0.00 | 45 | 1012.5 |
| 20260508014543 | 48 | 24 | 2.6 | 3.5 | 0.00 | 0.00 | 0.00 | 40 | 1012.3 |
| 20260508013025 | 49 | 17 | 2.6 | 3.5 | 0.00 | 0.00 | 0.00 | 36 | 1012.3 |
| 20260508011525 | 53 | 14 | 2.6 | 4.3 | 0.00 | 0.00 | 0.00 | 31 | 1012.3 |
| 20260508010030 | 55 | 24 | 1.7 | 4.3 | 0.00 | 0.00 | 0.00 | 30 | 1012.2 |
| 20260508004528 | 57 | 5 | 1.7 | 7.0 | 0.00 | 0.00 | 0.00 | 28 | 1012.0 |
| 20260508003048 | 57 | 360 | 3.5 | 9.6 | 0.00 | 0.00 | 0.00 | 27 | 1011.9 |
| 20260508001524 | 58 | 290 | 7.8 | 11.3 | 0.00 | 0.00 | 0.00 | 26 | 1011.9 |
| 20260508000023 | 58 | 336 | 3.5 | 8.7 | 0.00 | 0.00 | 0.00 | 26 | 1011.8 |
| 20260507234522 | 59 | 329 | 7.0 | 12.2 | 0.00 | 0.00 | 0.00 | 26 | 1012.0 |
| 20260507233031 | 59 | 348 | 8.7 | 13.0 | 0.00 | 0.00 | 0.00 | 26 | 1011.9 |
| 20260507231520 | 59 | 321 | 7.8 | 12.2 | 0.00 | 0.00 | 0.00 | 26 | 1012.0 |
| 20260507230019 | 60 | 304 | 5.2 | 15.6 | 0.00 | 0.00 | 0.00 | 27 | 1012.1 |
| 20260507224518 | 60 | 286 | 8.7 | 16.5 | 0.00 | 0.00 | 0.00 | 26 | 1012.1 |
| 20260507223018 | 60 | 327 | 7.8 | 13.9 | 0.00 | 0.00 | 0.00 | 26 | 1012.0 |
| 20260507221516 | 60 | 321 | 9.6 | 16.5 | 0.00 | 0.00 | 0.00 | 25 | 1012.0 |
| 20260507220015 | 60 | 304 | 8.7 | 15.6 | 0.00 | 0.00 | 0.00 | 26 | 1012.0 |
| 20260507214514 | 59 | 310 | 8.7 | 15.6 | 0.00 | 0.00 | 0.00 | 27 | 1012.2 |
| 20260507213014 | 60 | 296 | 8.7 | 13.9 | 0.00 | 0.00 | 0.00 | 26 | 1012.1 |
| 20260507211514 | 59 | 307 | 6.1 | 16.5 | 0.00 | 0.00 | 0.00 | 29 | 1012.1 |
| 20260507210011 | 59 | 305 | 4.3 | 13.9 | 0.00 | 0.00 | 0.00 | 29 | 1012.3 |
| 20260507204507 | 59 | 271 | 7.8 | 16.5 | 0.00 | 0.00 | 0.00 | 30 | 1012.4 |